Location: Dittelbrunn
(50.0738°N, 10.2196°E)
Time: 06:57:17
(UTC+00:00)

ATLAS CENTAUR R/B - Pass Details

Date: 18 September 2020
Orbit: 479 x 667 km, 64.7° (Epoch: 12 October)

Event Time Altitude Azimuth Distance (km) Brightness Sun altitude
Rises 19:28:38 0° 290° (WNW) 2,619 6.4 -19.8°
Reaches altitude 10° 19:32:29 10° 329° (NNW) 1,698 4.7 -20.3°
Maximum altitude 19:33:28 11° 345° (NNW) 1,641 4.3 -20.5°
Drops below altitude 10° 19:34:27 10° 360° (N) 1,685 4.2 -20.6°
Enters shadow 19:37:33 - 35° (NE) 2,346 4.5 -21.0°
